This demonstration page uses our WeatherBlox Daily Observations layout. Learn more.

Left ArrowRight Arrow

40.92945, -100.16068

Hourly Observations for September 19, 2016

Temp ( °F °C ) Dew Point ( °F °C ) Humidity (%) Winds ( mph kmh ) Pressure ( in mb ) Visibility ( mi km ) Precip ( " mm )
12:15 am 00:15 Clear 59 14.9 52 11.3 79 79 N N/A 29.88 1012 10 16 N/A
12:35 am 00:35 Clear 57 14 53 11.4 84 84 N N/A 29.88 1012 10 16 N/A
12:55 am 00:55 Clear 57 14 52 10.9 82 82 SE 5 7 29.88 1012 10 16 N/A
1:15 am 01:15 Clear 63 17.3 50 10.1 63 63 ESE 5 7 29.85 1011 10 16 N/A
1:35 am 01:35 Clear 58 14.4 51 10.7 79 79 E 5 7 29.88 1012 10 16 N/A
1:55 am 01:55 Clear 56 13.3 51 10.5 83 83 SE 3 6 29.85 1011 10 16 N/A
2:15 am 02:15 Clear 56 13.5 51 10.6 83 83 ESE 3 6 29.85 1011 10 16 N/A
2:35 am 02:35 Clear 58 14.3 51 10.5 78 78 SE 3 6 29.85 1011 10 16 N/A
2:55 am 02:55 Clear 56 13.1 51 10.5 84 84 N N/A 29.85 1011 10 16 N/A
3:15 am 03:15 Clear 55 12.7 51 10.3 85 85 N N/A 29.88 1012 10 16 N/A
3:35 am 03:35 Clear 54 12 50 10.1 88 88 N N/A 29.91 1013 10 16 N/A
3:55 am 03:55 Clear 53 11.9 50 10.1 89 89 N N/A 29.91 1013 10 16 N/A
4:15 am 04:15 Clear 55 12.5 50 10.1 85 85 W 3 6 29.88 1012 10 16 N/A
4:35 am 04:35 Clear 54 12.4 49 9.5 83 83 NW 6 9 29.88 1012 10 16 N/A
4:55 am 04:55 Clear 54 12 49 9.5 85 85 WNW 5 7 29.91 1013 10 16 N/A
5:15 am 05:15 Clear 53 11.9 48 9 83 83 N N/A 29.91 1013 10 16 N/A
5:35 am 05:35 Clear 53 11.4 48 9.1 86 86 NW 5 7 29.91 1013 10 16 N/A
5:55 am 05:55 Clear 55 12.5 48 9 79 79 WNW 5 7 29.94 1014 10 16 N/A
6:15 am 06:15 Clear 51 10.6 47 8.3 86 86 NW 5 7 29.94 1014 10 16 N/A
6:35 am 06:35 Clear 52 11.3 48 8.7 84 84 N N/A 29.94 1014 10 16 N/A
6:55 am 06:55 Clear 51 10.8 47 8.5 86 86 NNW 5 7 29.97 1015 10 16 N/A
7:15 am 07:15 Clear 52 10.9 47 8.5 85 85 NW 6 9 29.97 1015 10 16 N/A
7:35 am 07:35 Sunny 53 11.5 47 8.5 82 82 NW 5 7 30.00 1016 10 16 N/A
7:55 am 07:55 Sunny 53 11.5 47 8.6 83 83 NW 7 11 30.00 1016 10 16 N/A
8:15 am 08:15 Sunny 57 13.9 49 9.2 74 74 NW 9 15 29.97 1015 10 16 N/A
8:35 am 08:35 Sunny 58 14.6 49 9.4 71 71 NW 13 20 30.00 1016 10 16 N/A
8:55 am 08:55 Sunny 60 15.8 50 9.8 68 68 NNW 8 13 30.00 1016 10 16 N/A
9:15 am 09:15 Sunny 64 17.6 51 10.5 63 63 N 13 20 29.97 1015 10 16 N/A
9:35 am 09:35 Sunny 66 18.8 50 10.1 57 57 NNE 8 13 29.97 1015 10 16 N/A
9:55 am 09:55 Sunny 68 19.8 49 9.3 51 51 NNE 10 17 30.00 1016 10 16 N/A
10:15 am 10:15 Sunny 70 21 48 8.8 46 46 NE 15 24 29.97 1015 10 16 N/A
10:35 am 10:35 Sunny 71 21.5 47 8.1 42 42 NE 12 19 29.97 1015 10 16 N/A
10:55 am 10:55 Sunny 72 22.1 47 8.4 42 42 NE 10 17 29.97 1015 10 16 N/A
11:15 am 11:15 Sunny 73 22.7 47 8.2 40 40 ENE 13 20 29.97 1015 10 16 N/A
11:35 am 11:35 Sunny 74 23.1 47 8.5 39 39 NE 10 17 29.97 1015 10 16 N/A
11:55 am 11:55 Sunny 75 23.7 48 8.7 38 38 NE 12 19 29.97 1015 10 16 N/A
12:15 pm 12:15 Sunny 75 24 47 8.6 38 38 NNE 10 17 29.94 1014 10 16 N/A
12:35 pm 12:35 Sunny 76 24.5 48 9.1 38 38 ENE 10 17 29.94 1014 10 16 N/A
12:55 pm 12:55 Sunny 77 24.9 48 9.1 37 37 ENE 10 17 29.94 1014 10 16 N/A
1:15 pm 13:15 Sunny 78 25.3 50 9.8 38 38 ENE 10 17 29.94 1014 10 16 N/A
1:35 pm 13:35 Sunny N/A N/A N/A ENE 7 11 N/A 10 16 N/A
1:55 pm 13:55 Sunny 79 26.1 49 9.4 35 35 NE 7 11 29.94 1014 10 16 N/A
2:15 pm 14:15 Sunny 79 26.2 49 9.2 34 34 NE 8 13 29.94 1014 10 16 N/A
2:35 pm 14:35 Sunny 80 26.6 49 9.7 35 35 ENE 9 15 29.91 1013 10 16 N/A
2:55 pm 14:55 Sunny 81 27 49 9.5 33 33 ENE 8 13 29.91 1013 10 16 N/A
3:15 pm 15:15 Sunny 82 27.5 50 9.8 33 33 E 8 13 29.88 1012 10 16 N/A
3:35 pm 15:35 Sunny 82 27.6 49 9.5 32 32 ENE 7 11 29.88 1012 10 16 N/A
3:55 pm 15:55 Sunny 82 27.9 49 9.3 31 31 ENE 7 11 29.88 1012 10 16 N/A
4:15 pm 16:15 Sunny 82 28 49 9.4 31 31 E 8 13 29.88 1012 10 16 N/A
4:35 pm 16:35 Sunny 82 28 50 9.9 32 32 ENE 7 11 29.88 1012 10 16 N/A
4:55 pm 16:55 Sunny 83 28.1 51 10.5 33 33 E 7 11 29.88 1012 10 16 N/A
5:15 pm 17:15 Sunny 82 28 50 10.1 33 33 E 7 11 29.88 1012 10 16 N/A
5:35 pm 17:35 Sunny 82 27.7 51 10.5 34 34 ESE 8 13 29.88 1012 10 16 N/A
5:55 pm 17:55 Sunny 81 27.3 51 10.8 36 36 E 9 15 29.88 1012 10 16 N/A
6:15 pm 18:15 Sunny 80 26.7 53 11.9 40 40 E 9 15 29.91 1013 10 16 N/A
6:35 pm 18:35 Sunny 79 26.3 53 11.4 39 39 ESE 8 13 29.91 1013 10 16 N/A
6:55 pm 18:55 Sunny 78 25.6 54 12 43 43 ESE 8 13 29.91 1013 10 16 N/A
7:15 pm 19:15 Sunny 76 24.3 54 12.4 47 47 ESE 7 11 29.91 1013 10 16 N/A
7:35 pm 19:35 Sunny 73 22.6 55 13 55 55 E 7 11 29.94 1014 10 16 N/A
7:55 pm 19:55 Clear 69 20.6 56 13.3 63 63 E 7 11 29.94 1014 10 16 N/A
8:15 pm 20:15 Clear 66 19.1 55 12.9 67 67 E 7 11 29.97 1015 10 16 N/A
8:35 pm 20:35 Clear 66 19.1 55 12.6 66 66 E 7 11 30.00 1016 10 16 N/A
8:55 pm 20:55 Clear 68 20 55 12.5 62 62 E 9 15 30.00 1016 10 16 N/A
9:15 pm 21:15 Clear 65 18.3 55 12.5 69 69 E 8 13 30.00 1016 10 16 N/A
9:35 pm 21:35 Clear 62 16.7 54 12.4 76 76 E 6 9 30.03 1017 10 16 N/A
9:55 pm 21:55 Clear 61 16.3 54 12.2 77 77 E 7 11 30.03 1017 10 16 N/A
10:15 pm 22:15 Clear 63 17 55 12.5 75 75 E 7 11 30.03 1017 10 16 N/A
10:35 pm 22:35 Clear 63 17.1 54 12.4 74 74 ESE 7 11 30.00 1016 10 16 N/A
10:55 pm 22:55 Clear 63 17.4 54 12.2 72 72 ESE 6 9 30.00 1016 10 16 N/A
11:15 pm 23:15 Clear 62 16.6 54 12.1 75 75 E 3 6 30.06 1018 10 16 N/A
11:35 pm 23:35 Clear 59 15 54 12 82 82 E 6 9 30.06 1018 10 16 N/A
11:55 pm 23:55 Clear 57 14.1 53 11.4 84 84 E 6 9 30.06 1018 10 16 N/A

Powered by AerisWeather